星链-4290 (STARLINK-4290 )

导读 | 星芒AI

STARLINK-4290 是 SpaceX Starlink 卫星互联网项目中的一颗低轨卫星,属于“星链”计划的第 12 批部署任务。该卫星运行在约 550 公里的近地轨道,旨在为全球用户提供高速互联网服务。它采用先进的通信技术,支持宽带接入,并具备自动避障功能,以确保在轨安全。Starlink 卫星群的建设目标是实现全球覆盖,尤其关注偏远和网络基础设施薄弱地区。STARLINK-4290 的发射和运行有助于提升 Starlink 网络的稳定性和服务能力。

基本信息
目录编号:
53006
目录名称:
STARLINK-4290
国际标识:
2022-076W
轨道中心:
EARTH
卫星名称:
星链-4290
卫星全名:
星链-4290 (STARLINK-4290 )
卫星状态:
在轨 (已飞行1263 天)
发射日期:
2022-07-07 UTC
国别 :
美国 (US)
星等 :
--
轨道信息
数据来源 国际轨道数据
星历时间: 2025-12-20T23:25:47+0800
15小时前
查看轨道信息
半长轴: 6917.899km
偏心率: 0.0001233
轨道倾角: 53.218°
近地点辐角 89.128°
升交点赤经 88.974°
平近点角 270.986°
近地点: 538.909km
远地点: 540.615km
周期: 95.438分钟
每日圈数: 15.08834
详细信息
固有亮度:
5
最大亮度:
2.5
卫星平台:
Starlink v1.5
覆盖范围:
全球
运营商:
太空探索技术公司
运营商所在国:
美国
制造商(研发单位):
太空探索技术公司
制造商所在国:
美国
使用方式:
暂无
卫星简介
星链(Starlink)计划是由太空探索技术公司(SpaceX)提出的一个巨型低轨卫星互联网星座项目,计划在2019年至2024年间在太空搭建由约1.2万颗卫星组成的“星链”网络,其中1584颗将部署在地球上空550千米处的近地轨道,并从2020年开始工作。该卫星仍在工作。
2D轨道图
3D轨道图
轨道高度分析图
轨道倾角分析图
轨道综合分析图
查看轨道综合分析图